Location: Poughquag
(41.6090°N, 73.6820°W)
Time: 01:09:50
(UTC-04:00)

Vanguard 2 Rocket - Pass Details

Date: 30 May 2020
Orbit: 556 x 3324 km, 32.9° (Epoch: 06 July)

Event Time Altitude Azimuth Distance (km) Brightness Sun altitude
Rises 23:18:59 0° 273° (W) 6,435 11.6 -22.8°
Reaches altitude 10° 23:25:05 10° 257° (WSW) 5,811 11.1 -23.3°
Maximum altitude 23:35:42 18° 222° (SW) 5,503 10.6 -24.0°
Enters shadow 23:42:21 15° 200° (SSW) 5,814 10.5 -24.4°
Drops below altitude 10° 23:47:10 10° 187° (S) 6,229 - -24.6°
Sets 23:54:20 0° 171° (S) 7,043 - -25.0°
